Overview Statistics Trail Chart Weather Telemetry Raw packets
 

This is the latest recevied weather packets stored in our database for station/object ENMS. If no packets are shown the sender has not sent any weather packets the latest 10 day(s).

<< 10 11 12 13 14 15 16 >>
Time Temp. Humidity Pressure Rain* Wind** Luminosity Snow
1788096789 15° C 76% 1001 hPa - - - -
1788091387 15.56° C 77% 1001 hPa - - - -
1788089588 15° C 76% 1001 hPa - - - -
1788087787 15° C 76% 1001 hPa - - - -
1788085988 15° C 76% 1000 hPa - - - -
1788084187 13.89° C 82% 1000 hPa - - - -
1788082388 13.89° C 82% 1000 hPa - - - -
1788080587 13.89° C 87% 1000 hPa - - - -
1788078788 13.89° C 93% 1000 hPa - - - -
1788076987 13.89° C 87% 1000 hPa - - - -
1788075187 12.78° C 93% 1000 hPa - - - -
1788073388 12.78° C 93% 999 hPa - - - -
1788071587 12.78° C 93% 999 hPa - - - -
1788069788 13.89° C 93% 999 hPa - - - -
1788066187 12.78° C 93% 999 hPa - - - -
1788064388 12.78° C 93% 999 hPa - - - -
1788062587 12.78° C 93% 999 hPa - - - -
1788060787 12.78° C 93% 999 hPa - - - -
1788058987 12.78° C 10% - - - - -
1788055388 12.78° C 10% - - - - -
1788053587 12.78° C 10% - - - - -
1788051787 13.89° C 93% 999 hPa - - - -
1788049987 13.89° C 93% 999 hPa - - - -
1788048187 13.89° C 93% 999 hPa - - - -
1788046386 12.78° C 10% - - - - -

* Rain since midnight (hover to see other rain measurements)
** Current wind speed in m/s (hover to see current wind gust speed)